QPF
0.02 0.02 0.02 0.01 0.01 0.01 0.01 0.01 0.03 0.04 0.05 0.06 0.07 0.09 0.11 0.10 0.12 0.12 0.07 0.05 0.04 0.03 0.03 0.02 0.01 0.01 0.01 0.01 0.01 0.01 0.01 0.00 0.00 0.01 0.01 0.01 0.01 0.00 0.01 0.01 0.01 0.01 0.00
0.01 0.02 0.02 0.01 0.02 0.01 0.02 0.02 0.03 0.03 0.04 0.05 0.06 0.08 0.07 0.08 0.10 0.06 0.07 0.05 0.05 0.04 0.03 0.02 0.02 0.01 0.01 0.01 0.01 0.02 0.02 0.01 0.00 0.00 0.01 0.01 0.01 0.00 0.00 0.01 0.01 0.01 0.01
0.02 0.02 0.01 0.01 0.01 0.02 0.02 0.03 0.03 0.03 0.03 0.03 0.04 0.05 0.05 0.07 0.10 0.06 0.03 0.03 0.02 0.03 0.03 0.03 0.04 0.05 0.04 0.04 0.04 0.04 0.03 0.02 0.02 0.01 0.01 0.01 0.01 0.01 0.01 0.01 0.01 0.01 0.01
0.02 0.02 0.01 0.01 0.01 0.02 0.03 0.02 0.03 0.03 0.03 0.03 0.03 0.03 0.04 0.06 0.06 0.04 0.02 0.02 0.01 0.01 0.02 0.04 0.04 0.05 0.06 0.06 0.05 0.03 0.03 0.03 0.02 0.02 0.02 0.01 0.01 0.01 0.01 0.00 0.00 0.00 0.00
0.04 0.03 0.01 0.02 0.02 0.02 0.03 0.03 0.03 0.03 0.03 0.03 0.03 0.02 0.04 0.06 0.05 0.03 0.03 0.02 0.01 0.01 0.01 0.02 0.04 0.04 0.04 0.05 0.06 0.06 0.05 0.04 0.03 0.03 0.02 0.02 0.02 0.02 0.01 0.01 0.01 0.00 0.00
0.05 0.05 0.04 0.03 0.02 0.02 0.03 0.03 0.03 0.02 0.02 0.02 0.03 0.03 0.03 0.05 0.04 0.04 0.05 0.05 0.03 0.02 0.02 0.02 0.01 0.02 0.04 0.05 0.06 0.07 0.06 0.05 0.04 0.03 0.02 0.02 0.02 0.02 0.01 0.01 0.01 0.01 0.01
0.06 0.06 0.06 0.04 0.02 0.02 0.02 0.02 0.02 0.01 0.01 0.01 0.02 0.03 0.03 0.03 0.04 0.04 0.05 0.06 0.08 0.04 0.04 0.03 0.02 0.02 0.02 0.03 0.03 0.04 0.06 0.06 0.04 0.03 0.02 0.02 0.02 0.02 0.02 0.01 0.01 0.01 0.01
0.07 0.06 0.06 0.04 0.03 0.03 0.02 0.01 0.01 0.01 0.00 0.01 0.01 0.01 0.02 0.03 0.04 0.05 0.05 0.04 0.06 0.06 0.06 0.04 0.03 0.01 0.01 0.01 0.01 0.02 0.03 0.05 0.05 0.04 0.04 0.04 0.03 0.03 0.03 0.02 0.02 0.01 0.01
0.09 0.08 0.08 0.06 0.04 0.03 0.02 0.01 0.01 0.00 0.00 0.00 0.00 0.00 0.00 0.01 0.01 0.03 0.04 0.04 0.03 0.04 0.03 0.04 0.03 0.01 0.01 0.01 0.01 0.01 0.01 0.02 0.03 0.05 0.05 0.04 0.03 0.04 0.03 0.03 0.03 0.02 0.02
0.09 0.08 0.09 0.08 0.05 0.04 0.03 0.02 0.01 0.00 0.00 0.00 0.00 0.00 0.00 0.00 0.00 0.02 0.03 0.03 0.03 0.02 0.01 0.01 0.01 0.01 0.01 0.01 0.01 0.01 0.01 0.01 0.01 0.02 0.03 0.03 0.02 0.02 0.02 0.03 0.03 0.04 0.02
0.11 0.11 0.09 0.08 0.05 0.03 0.03 0.01 0.01 0.01 0.00 0.00 0.00 0.00 0.00 0.00 0.00 0.01 0.01 0.01 0.02 0.01 0.01 0.00 0.00 0.01 0.01 0.00 0.00 0.00 0.01 0.01 0.00 0.01 0.01 0.01 0.01 0.01 0.01 0.01 0.01 0.02 0.03
0.13 0.12 0.11 0.08 0.06 0.04 0.03 0.02 0.01 0.02 0.01 0.00 0.00 0.00 0.00 0.00 0.00 0.00 0.00 0.00 0.00 0.00 0.01 0.00 0.00 0.01 0.00 0.00 0.00 0.00 0.01 0.00 0.00 0.00 0.00 0.00 0.00 0.00 0.00 0.00 0.01 0.01 0.02
0.09 0.08 0.08 0.07 0.05 0.04 0.03 0.02 0.02 0.01 0.01 0.00 0.00 0.00 0.00 0.00 0.00 0.00 0.00 0.00 0.00 0.00 0.00 0.00 0.00 0.00 0.00 0.00 0.00 0.00 0.00 0.00 0.00 0.00 0.00 0.00 0.00 0.00 0.00 0.01 0.01 0.00 0.01
0.06 0.04 0.05 0.05 0.03 0.03 0.03 0.02 0.02 0.02 0.01 0.00 0.00 0.00 0.00 0.00 0.00 0.00 0.00 0.00 0.00 0.00 0.00 0.00 0.00 0.00 0.00 0.00 0.00 0.00 0.00 0.00 0.00 0.00 0.00 0.00 0.00 0.00 0.00 0.00 0.00 0.00 0.00
0.05 0.05 0.04 0.03 0.02 0.03 0.03 0.02 0.02 0.01 0.01 0.00 0.00 0.00 0.00 0.00 0.00 0.00 0.00 0.00 0.00 0.00 0.00 0.00 0.00 0.00 0.00 0.00 0.00 0.00 0.00 0.00 0.00 0.00 0.00 0.00 0.00 0.00 0.00 0.00 0.00 0.00 0.00
0.06 0.06 0.05 0.04 0.04 0.03 0.02 0.03 0.03 0.02 0.01 0.01 0.01 0.01 0.00 0.00 0.00 0.00 0.00 0.00 0.00 0.00 0.00 0.00 0.00 0.00 0.00 0.00 0.00 0.00 0.00 0.00 0.00 0.00 0.00 0.00 0.00 0.00 0.00 0.00 0.00 0.00 0.00
0.08 0.07 0.07 0.06 0.04 0.03 0.03 0.03 0.03 0.02 0.02 0.01 0.01 0.01 0.01 0.00 0.00 0.00 0.00 0.00 0.01 0.01 0.01 0.00 0.00 0.00 0.00 0.00 0.00 0.00 0.00 0.00 0.00 0.00 0.00 0.00 0.00 0.00 0.00 0.00 0.00 0.00 0.00
0.10 0.08 0.08 0.07 0.06 0.04 0.03 0.02 0.02 0.02 0.02 0.01 0.01 0.01 0.01 0.02 0.02 0.01 0.01 0.01 0.01 0.02 0.01 0.01 0.01 0.01 0.00 0.00 0.01 0.00 0.00 0.00 0.00 0.00 0.00 0.00 0.00 0.00 0.00 0.00 0.00 0.00 0.00
0.11 0.10 0.08 0.06 0.05 0.05 0.05 0.04 0.03 0.04 0.03 0.02 0.02 0.02 0.03 0.05 0.04 0.03 0.03 0.02 0.02 0.02 0.02 0.01 0.01 0.01 0.01 0.01 0.02 0.01 0.01 0.01 0.01 0.01 0.01 0.00 0.00 0.00 0.00 0.00 0.00 0.00 0.00
0.13 0.12 0.12 0.12 0.11 0.11 0.12 0.10 0.09 0.07 0.05 0.05 0.05 0.05 0.05 0.04 0.04 0.04 0.04 0.04 0.04 0.04 0.03 0.02 0.01 0.01 0.01 0.02 0.03 0.02 0.01 0.01 0.01 0.00 0.01 0.01 0.01 0.01 0.01 0.01 0.01 0.00 0.00
0.14 0.15 0.16 0.17 0.16 0.16 0.18 0.19 0.19 0.13 0.09 0.07 0.07 0.06 0.06 0.05 0.05 0.06 0.06 0.06 0.06 0.06 0.04 0.03 0.02 0.01 0.01 0.01 0.02 0.02 0.02 0.01 0.01 0.01 0.01 0.01 0.01 0.01 0.01 0.01 0.01 0.01 0.01
0.12 0.14 0.14 0.15 0.16 0.14 0.16 0.21 0.20 0.17 0.12 0.09 0.08 0.08 0.08 0.09 0.09 0.08 0.07 0.06 0.05 0.04 0.03 0.03 0.02 0.01 0.01 0.01 0.02 0.02 0.02 0.02 0.01 0.01 0.02 0.01 0.01 0.01 0.01 0.02 0.02 0.02 0.02
0.10 0.11 0.12 0.13 0.13 0.12 0.15 0.15 0.15 0.14 0.13 0.12 0.10 0.10 0.09 0.08 0.09 0.08 0.09 0.09 0.07 0.05 0.04 0.04 0.03 0.02 0.02 0.02 0.03 0.03 0.02 0.02 0.02 0.02 0.02 0.02 0.01 0.01 0.01 0.01 0.02 0.03 0.03
0.08 0.10 0.13 0.12 0.11 0.11 0.11 0.11 0.11 0.10 0.11 0.13 0.12 0.11 0.10 0.08 0.08 0.09 0.09 0.07 0.05 0.04 0.05 0.05 0.04 0.02 0.02 0.03 0.04 0.04 0.05 0.04 0.04 0.03 0.03 0.03 0.02 0.01 0.01 0.00 0.00 0.01 0.01
0.08 0.11 0.13 0.12 0.13 0.13 0.12 0.11 0.09 0.07 0.07 0.08 0.08 0.08 0.07 0.06 0.07 0.09 0.08 0.07 0.06 0.05 0.06 0.07 0.06 0.05 0.04 0.03 0.03 0.04 0.04 0.04 0.04 0.03 0.03 0.03 0.02 0.02 0.01 0.01 0.00 0.00 0.00
0.13 0.13 0.12 0.12 0.12 0.12 0.13 0.12 0.12 0.09 0.07 0.06 0.06 0.06 0.05 0.04 0.04 0.05 0.04 0.04 0.04 0.04 0.04 0.04 0.04 0.04 0.04 0.04 0.05 0.04 0.04 0.05 0.05 0.05 0.04 0.05 0.03 0.03 0.02 0.01 0.00 0.00 0.00
MSLP
1016.45 1016.63 1016.74 1016.83 1016.92 1017.03 1017.17 1017.33 1017.52 1017.70 1017.88 1018.04 1018.20 1018.35 1018.52 1018.70 1018.90 1019.12 1019.33 1019.53 1019.72 1019.88 1020.01 1020.13 1020.25 1020.36 1020.47 1020.56 1020.65 1020.71 1020.76 1020.79 1020.83 1020.89 1020.99 1021.12 1021.28 1021.46 1021.63 1021.76 1021.85 1021.87 1021.85
1016.31 1016.50 1016.65 1016.78 1016.91 1017.05 1017.23 1017.42 1017.63 1017.85 1018.05 1018.25 1018.44 1018.62 1018.79 1018.96 1019.13 1019.29 1019.45 1019.60 1019.74 1019.88 1020.02 1020.17 1020.32 1020.48 1020.62 1020.74 1020.83 1020.87 1020.88 1020.87 1020.87 1020.89 1020.96 1021.08 1021.24 1021.43 1021.62 1021.77 1021.87 1021.91 1021.90
1016.08 1016.30 1016.49 1016.68 1016.87 1017.07 1017.29 1017.53 1017.77 1018.01 1018.25 1018.48 1018.70 1018.90 1019.08 1019.24 1019.37 1019.48 1019.57 1019.65 1019.73 1019.83 1019.96 1020.12 1020.30 1020.49 1020.68 1020.82 1020.92 1020.96 1020.94 1020.90 1020.86 1020.84 1020.88 1020.98 1021.14 1021.33 1021.52 1021.69 1021.80 1021.86 1021.88
1015.79 1016.06 1016.31 1016.57 1016.84 1017.11 1017.38 1017.65 1017.92 1018.19 1018.45 1018.70 1018.94 1019.17 1019.36 1019.51 1019.61 1019.67 1019.70 1019.71 1019.72 1019.77 1019.86 1020.01 1020.20 1020.42 1020.63 1020.80 1020.92 1020.96 1020.94 1020.88 1020.81 1020.77 1020.78 1020.86 1021.00 1021.18 1021.37 1021.55 1021.68 1021.76 1021.80
1015.50 1015.81 1016.14 1016.49 1016.83 1017.17 1017.49 1017.80 1018.09 1018.36 1018.63 1018.90 1019.15 1019.39 1019.60 1019.75 1019.84 1019.87 1019.85 1019.80 1019.75 1019.73 1019.77 1019.89 1020.06 1020.28 1020.51 1020.70 1020.84 1020.89 1020.89 1020.82 1020.75 1020.69 1020.69 1020.75 1020.87 1021.03 1021.21 1021.38 1021.52 1021.61 1021.67
1015.23 1015.60 1016.00 1016.43 1016.85 1017.25 1017.61 1017.94 1018.23 1018.50 1018.76 1019.03 1019.30 1019.56 1019.79 1019.96 1020.06 1020.08 1020.03 1019.94 1019.83 1019.75 1019.73 1019.79 1019.93 1020.13 1020.34 1020.55 1020.70 1020.78 1020.79 1020.75 1020.68 1020.63 1020.62 1020.67 1020.77 1020.91 1021.08 1021.23 1021.36 1021.45 1021.51
1015.03 1015.43 1015.89 1016.39 1016.87 1017.32 1017.71 1018.05 1018.33 1018.58 1018.83 1019.09 1019.37 1019.65 1019.92 1020.13 1020.26 1020.30 1020.25 1020.13 1019.97 1019.84 1019.75 1019.75 1019.83 1019.98 1020.17 1020.37 1020.53 1020.63 1020.68 1020.67 1020.63 1020.60 1020.60 1020.64 1020.73 1020.85 1020.98 1021.11 1021.21 1021.29 1021.33
1014.87 1015.30 1015.81 1016.35 1016.87 1017.35 1017.76 1018.09 1018.35 1018.58 1018.82 1019.07 1019.37 1019.68 1019.98 1020.24 1020.43 1020.50 1020.47 1020.34 1020.17 1019.98 1019.83 1019.75 1019.77 1019.86 1020.01 1020.18 1020.34 1020.46 1020.54 1020.57 1020.57 1020.58 1020.60 1020.65 1020.73 1020.83 1020.93 1021.03 1021.09 1021.13 1021.14
1014.75 1015.19 1015.71 1016.27 1016.82 1017.32 1017.72 1018.04 1018.29 1018.50 1018.72 1018.97 1019.28 1019.62 1019.98 1020.30 1020.54 1020.66 1020.66 1020.55 1020.36 1020.14 1019.93 1019.78 1019.72 1019.74 1019.84 1019.97 1020.12 1020.25 1020.36 1020.43 1020.49 1020.53 1020.59 1020.66 1020.74 1020.82 1020.90 1020.96 1020.98 1020.97 1020.94
1014.63 1015.06 1015.58 1016.15 1016.70 1017.19 1017.59 1017.90 1018.13 1018.33 1018.55 1018.81 1019.13 1019.50 1019.90 1020.27 1020.57 1020.74 1020.78 1020.69 1020.50 1020.26 1020.00 1019.79 1019.66 1019.61 1019.64 1019.73 1019.86 1019.99 1020.12 1020.23 1020.33 1020.42 1020.51 1020.61 1020.70 1020.78 1020.84 1020.86 1020.85 1020.80 1020.73
1014.48 1014.90 1015.40 1015.95 1016.49 1016.97 1017.37 1017.67 1017.90 1018.10 1018.32 1018.58 1018.92 1019.32 1019.75 1020.16 1020.50 1020.71 1020.79 1020.72 1020.54 1020.28 1020.00 1019.74 1019.54 1019.43 1019.40 1019.45 1019.54 1019.66 1019.79 1019.93 1020.07 1020.20 1020.33 1020.45 1020.57 1020.65 1020.70 1020.71 1020.67 1020.59 1020.49
1014.29 1014.69 1015.17 1015.70 1016.22 1016.69 1017.08 1017.38 1017.61 1017.82 1018.04 1018.32 1018.67 1019.08 1019.52 1019.95 1020.31 1020.55 1020.65 1020.61 1020.44 1020.18 1019.89 1019.60 1019.37 1019.21 1019.12 1019.12 1019.17 1019.27 1019.40 1019.54 1019.69 1019.85 1020.01 1020.17 1020.30 1020.40 1020.46 1020.46 1020.41 1020.33 1020.21
1014.06 1014.45 1014.91 1015.42 1015.92 1016.37 1016.75 1017.06 1017.30 1017.52 1017.76 1018.04 1018.39 1018.80 1019.23 1019.66 1020.02 1020.27 1020.38 1020.36 1020.21 1019.97 1019.68 1019.39 1019.14 1018.95 1018.83 1018.78 1018.79 1018.85 1018.95 1019.08 1019.23 1019.40 1019.58 1019.75 1019.90 1020.02 1020.09 1020.10 1020.07 1019.99 1019.88
1013.80 1014.19 1014.65 1015.14 1015.62 1016.06 1016.43 1016.74 1017.00 1017.23 1017.47 1017.76 1018.09 1018.48 1018.89 1019.29 1019.63 1019.87 1019.99 1019.99 1019.87 1019.66 1019.41 1019.14 1018.90 1018.70 1018.56 1018.47 1018.44 1018.46 1018.52 1018.61 1018.74 1018.89 1019.06 1019.23 1019.39 1019.52 1019.61 1019.65 1019.63 1019.57 1019.48
1013.55 1013.96 1014.41 1014.89 1015.35 1015.77 1016.14 1016.45 1016.71 1016.95 1017.20 1017.47 1017.79 1018.14 1018.51 1018.87 1019.18 1019.40 1019.53 1019.54 1019.46 1019.31 1019.11 1018.89 1018.68 1018.50 1018.36 1018.25 1018.18 1018.15 1018.15 1018.18 1018.26 1018.37 1018.51 1018.66 1018.81 1018.95 1019.05 1019.09 1019.10 1019.06 1018.99
1013.33 1013.77 1014.22 1014.69 1015.13 1015.53 1015.89 1016.19 1016.45 1016.69 1016.93 1017.19 1017.47 1017.79 1018.11 1018.42 1018.69 1018.90 1019.03 1019.07 1019.04 1018.95 1018.82 1018.67 1018.52 1018.37 1018.24 1018.12 1018.02 1017.93 1017.87 1017.85 1017.85 1017.90 1017.98 1018.09 1018.21 1018.33 1018.42 1018.48 1018.49 1018.47 1018.43
1013.16 1013.62 1014.08 1014.53 1014.96 1015.34 1015.68 1015.96 1016.21 1016.44 1016.66 1016.89 1017.13 1017.40 1017.68 1017.95 1018.18 1018.38 1018.52 1018.59 1018.62 1018.60 1018.55 1018.48 1018.40 1018.30 1018.19 1018.07 1017.95 1017.82 1017.69 1017.59 1017.52 1017.49 1017.51 1017.56 1017.63 1017.71 1017.78 1017.82 1017.83 1017.81 1017.77
1013.02 1013.50 1013.97 1014.40 1014.81 1015.16 1015.47 1015.73 1015.96 1016.16 1016.35 1016.55 1016.76 1016.99 1017.22 1017.45 1017.66 1017.84 1017.99 1018.11 1018.19 1018.24 1018.27 1018.28 1018.26 1018.22 1018.14 1018.03 1017.89 1017.73 1017.55 1017.39 1017.25 1017.14 1017.08 1017.05 1017.06 1017.09 1017.11 1017.13 1017.12 1017.09 1017.04
1012.89 1013.38 1013.84 1014.26 1014.64 1014.97 1015.24 1015.47 1015.66 1015.83 1016.00 1016.16 1016.34 1016.52 1016.72 1016.91 1017.10 1017.28 1017.44 1017.58 1017.71 1017.82 1017.91 1017.99 1018.03 1018.04 1017.99 1017.90 1017.76 1017.58 1017.37 1017.16 1016.95 1016.78 1016.65 1016.56 1016.50 1016.46 1016.44 1016.41 1016.37 1016.31 1016.24
1012.74 1013.23 1013.68 1014.08 1014.43 1014.72 1014.96 1015.16 1015.32 1015.45 1015.58 1015.71 1015.85 1016.01 1016.17 1016.34 1016.51 1016.68 1016.84 1017.00 1017.15 1017.30 1017.43 1017.55 1017.63 1017.68 1017.67 1017.59 1017.46 1017.28 1017.06 1016.82 1016.58 1016.36 1016.18 1016.03 1015.91 1015.82 1015.74 1015.67 1015.59 1015.50 1015.41
1012.56 1013.03 1013.45 1013.83 1014.16 1014.42 1014.63 1014.79 1014.92 1015.02 1015.12 1015.22 1015.33 1015.45 1015.59 1015.74 1015.89 1016.04 1016.19 1016.34 1016.50 1016.65 1016.79 1016.93 1017.03 1017.09 1017.10 1017.05 1016.94 1016.77 1016.56 1016.32 1016.07 1015.83 1015.62 1015.43 1015.27 1015.14 1015.02 1014.91 1014.79 1014.68 1014.57
1012.32 1012.77 1013.17 1013.53 1013.83 1014.07 1014.26 1014.39 1014.49 1014.57 1014.64 1014.71 1014.80 1014.90 1015.01 1015.14 1015.26 1015.38 1015.51 1015.64 1015.76 1015.89 1016.01 1016.13 1016.23 1016.29 1016.31 1016.28 1016.19 1016.05 1015.86 1015.64 1015.40 1015.17 1014.95 1014.75 1014.57 1014.42 1014.27 1014.13 1014.00 1013.87 1013.75
1012.05 1012.47 1012.86 1013.21 1013.49 1013.72 1013.89 1014.00 1014.08 1014.14 1014.20 1014.25 1014.32 1014.40 1014.49 1014.58 1014.68 1014.76 1014.85 1014.93 1015.00 1015.08 1015.16 1015.24 1015.31 1015.35 1015.37 1015.34 1015.27 1015.16 1015.00 1014.81 1014.61 1014.40 1014.19 1014.00 1013.82 1013.66 1013.51 1013.36 1013.23 1013.09 1012.97
1011.80 1012.20 1012.58 1012.91 1013.19 1013.41 1013.58 1013.69 1013.76 1013.81 1013.86 1013.90 1013.96 1014.02 1014.09 1014.15 1014.21 1014.25 1014.28 1014.30 1014.31 1014.33 1014.35 1014.37 1014.39 1014.40 1014.39 1014.36 1014.30 1014.21 1014.08 1013.93 1013.75 1013.57 1013.39 1013.21 1013.05 1012.89 1012.75 1012.61 1012.49 1012.37 1012.26
1011.61 1012.00 1012.37 1012.71 1013.00 1013.22 1013.39 1013.50 1013.58 1013.63 1013.68 1013.72 1013.76 1013.81 1013.86 1013.89 1013.91 1013.90 1013.88 1013.84 1013.79 1013.73 1013.68 1013.63 1013.60 1013.56 1013.53 1013.48 1013.41 1013.32 1013.21 1013.07 1012.92 1012.76 1012.60 1012.44 1012.29 1012.15 1012.02 1011.91 1011.80 1011.70 1011.61
1011.54 1011.93 1012.30 1012.65 1012.94 1013.18 1013.36 1013.48 1013.57 1013.63 1013.68 1013.72 1013.76 1013.80 1013.83 1013.83 1013.82 1013.77 1013.69 1013.59 1013.48 1013.36 1013.24 1013.13 1013.04 1012.95 1012.87 1012.79 1012.70 1012.60 1012.47 1012.34 1012.19 1012.03 1011.87 1011.72 1011.58 1011.46 1011.35 1011.26 1011.18 1011.10 1011.03
Thickness
5755 5754 5753 5752 5751 5750 5748 5747 5745 5745 5744 5743 5742 5740 5738 5736 5734 5733 5731 5729 5728 5726 5725 5724 5722 5721 5719 5718 5716 5715 5715 5714 5713 5712 5711 5711 5710 5709 5709 5708 5707 5707 5706
5755 5753 5752 5751 5750 5750 5748 5747 5746 5745 5744 5743 5742 5741 5738 5736 5734 5733 5731 5729 5727 5726 5725 5724 5722 5721 5719 5717 5716 5715 5713 5712 5711 5711 5710 5709 5709 5708 5707 5706 5706 5705 5704
5754 5753 5751 5751 5750 5749 5748 5747 5746 5745 5744 5743 5742 5741 5739 5737 5734 5733 5731 5730 5728 5727 5725 5724 5722 5721 5719 5717 5716 5714 5713 5712 5711 5710 5709 5708 5707 5707 5706 5705 5704 5703 5703
5753 5752 5751 5751 5751 5749 5748 5746 5745 5743 5742 5741 5740 5740 5738 5737 5735 5733 5731 5730 5729 5727 5726 5724 5722 5721 5719 5718 5716 5715 5713 5712 5710 5710 5709 5708 5707 5706 5705 5704 5703 5702 5702
5753 5752 5751 5751 5751 5749 5748 5747 5744 5743 5740 5740 5740 5739 5738 5737 5736 5734 5732 5731 5729 5728 5726 5725 5723 5721 5720 5718 5717 5715 5714 5712 5711 5710 5709 5708 5707 5706 5705 5704 5702 5702 5701
5752 5751 5750 5750 5750 5748 5747 5746 5744 5743 5741 5740 5740 5738 5737 5737 5736 5735 5734 5732 5730 5729 5727 5726 5724 5723 5721 5720 5718 5716 5715 5713 5712 5711 5709 5708 5707 5706 5705 5704 5703 5702 5701
5751 5751 5749 5749 5749 5747 5746 5745 5743 5741 5739 5739 5735 5731 5733 5735 5735 5735 5734 5733 5731 5730 5729 5727 5725 5724 5723 5721 5720 5718 5716 5715 5713 5712 5710 5709 5707 5706 5705 5704 5703 5702 5701
5750 5750 5748 5747 5747 5746 5744 5744 5743 5739 5738 5738 5733 5726 5722 5725 5730 5735 5734 5733 5733 5731 5730 5728 5727 5725 5724 5723 5722 5720 5718 5716 5715 5713 5712 5710 5708 5707 5706 5705 5703 5702 5701
5748 5748 5747 5747 5746 5746 5744 5743 5743 5740 5736 5736 5736 5730 5720 5717 5723 5729 5733 5734 5733 5732 5731 5730 5729 5727 5726 5724 5723 5722 5720 5718 5716 5714 5713 5711 5710 5708 5707 5705 5704 5703 5702
5747 5747 5746 5746 5746 5745 5744 5743 5743 5741 5738 5734 5734 5735 5733 5730 5723 5721 5727 5732 5734 5734 5733 5732 5731 5730 5728 5726 5725 5724 5722 5720 5718 5716 5714 5712 5711 5709 5708 5706 5705 5704 5702
5746 5746 5745 5745 5744 5744 5744 5743 5742 5741 5739 5736 5734 5733 5732 5731 5729 5723 5720 5725 5730 5733 5734 5734 5733 5731 5730 5728 5726 5725 5723 5721 5719 5717 5715 5713 5711 5710 5708 5707 5705 5704 5703
5742 5744 5744 5744 5744 5743 5743 5742 5741 5740 5739 5737 5735 5734 5731 5729 5727 5725 5721 5721 5723 5730 5734 5734 5733 5732 5731 5729 5727 5726 5724 5722 5719 5718 5716 5714 5712 5710 5708 5707 5706 5704 5703
5739 5741 5742 5742 5742 5742 5742 5741 5740 5739 5738 5737 5735 5734 5733 5732 5732 5728 5724 5721 5722 5725 5730 5732 5734 5733 5731 5729 5727 5725 5723 5721 5719 5717 5715 5713 5711 5710 5708 5706 5705 5703 5702
5741 5742 5741 5741 5740 5740 5740 5739 5738 5737 5737 5736 5735 5734 5732 5732 5732 5731 5727 5722 5717 5718 5722 5726 5731 5731 5730 5728 5726 5724 5722 5720 5718 5716 5714 5712 5710 5709 5707 5705 5704 5702 5700
5741 5741 5740 5738 5738 5738 5738 5737 5736 5736 5735 5734 5733 5732 5731 5731 5731 5731 5730 5727 5719 5712 5713 5721 5725 5729 5728 5726 5725 5722 5720 5718 5716 5714 5712 5710 5709 5707 5705 5704 5702 5701 5699
5741 5739 5738 5737 5737 5737 5737 5736 5734 5734 5733 5732 5731 5730 5729 5729 5729 5728 5728 5726 5723 5717 5712 5718 5722 5725 5725 5724 5722 5720 5718 5716 5714 5712 5710 5708 5706 5704 5703 5701 5700 5698 5697
5739 5738 5737 5736 5735 5735 5735 5733 5732 5732 5730 5729 5729 5728 5727 5727 5725 5725 5724 5723 5720 5717 5712 5714 5718 5721 5720 5719 5718 5716 5714 5712 5710 5708 5706 5705 5703 5701 5700 5698 5697 5695 5694
5737 5737 5736 5735 5734 5734 5734 5732 5730 5730 5728 5727 5727 5726 5725 5725 5723 5722 5720 5719 5717 5715 5712 5709 5711 5713 5714 5714 5713 5710 5709 5708 5706 5705 5703 5701 5700 5698 5697 5695 5693 5691 5690
5735 5735 5734 5733 5733 5733 5732 5731 5729 5728 5727 5726 5725 5724 5723 5721 5719 5718 5716 5714 5713 5712 5709 5706 5704 5706 5706 5706 5705 5704 5703 5702 5702 5701 5699 5698 5696 5694 5693 5691 5689 5687 5685
5734 5732 5731 5731 5731 5731 5730 5729 5727 5725 5724 5724 5723 5722 5720 5718 5716 5714 5712 5710 5708 5705 5703 5700 5698 5697 5697 5698 5696 5694 5693 5693 5694 5694 5693 5692 5691 5689 5687 5686 5684 5682 5681
5733 5730 5728 5727 5727 5727 5726 5725 5724 5723 5720 5719 5718 5718 5717 5716 5714 5712 5709 5706 5703 5699 5696 5693 5691 5690 5688 5687 5686 5686 5684 5684 5685 5685 5684 5684 5683 5682 5680 5679 5677 5676 5675
5728 5727 5724 5724 5723 5723 5723 5723 5722 5720 5716 5714 5712 5712 5712 5710 5709 5707 5705 5703 5700 5695 5691 5687 5685 5682 5682 5680 5679 5678 5675 5673 5673 5676 5673 5674 5674 5672 5671 5670 5669 5668 5667
5724 5722 5721 5720 5718 5718 5718 5718 5717 5714 5711 5709 5707 5705 5705 5704 5702 5700 5698 5696 5693 5691 5688 5684 5679 5678 5676 5675 5672 5669 5667 5665 5666 5667 5663 5663 5663 5661 5662 5661 5660 5658 5657
5720 5718 5716 5715 5713 5712 5712 5711 5709 5707 5705 5703 5701 5699 5696 5695 5694 5692 5689 5687 5685 5683 5681 5678 5676 5674 5672 5670 5666 5663 5660 5658 5658 5657 5654 5650 5652 5651 5652 5651 5649 5647 5646
5714 5712 5711 5709 5706 5704 5704 5704 5702 5699 5696 5694 5693 5691 5689 5687 5685 5684 5680 5677 5675 5674 5673 5671 5668 5666 5664 5661 5658 5653 5649 5645 5644 5645 5643 5638 5640 5639 5639 5639 5638 5636 5634
5708 5706 5703 5701 5699 5697 5696 5696 5694 5691 5687 5685 5683 5681 5680 5678 5676 5674 5671 5668 5664 5663 5661 5660 5658 5656 5654 5651 5648 5643 5639 5634 5632 5631 5632 5627 5626 5622 5622 5626 5625 5622 5620